Temperature
21 21 22 21 24 25 23 23 23 23 23 22 21 22 22 21 21 20 17 17 17 16 16 16 17 17 16 16 17 17 17 17 17 17 17 17 17 17 17 17 17 17 17 17 17 17 17 17 18
21 22 21 23 25 24 22 23 23 23 22 21 21 21 22 20 19 18 17 17 16 16 16 16 17 16 16 16 16 17 17 17 17 17 17 17 17 17 17 17 17 17 17 17 17 17 17 17 17
21 22 22 25 24 24 23 23 23 22 21 22 22 21 21 19 18 18 17 17 16 16 16 16 16 16 16 16 16 17 17 17 17 17 17 17 17 17 17 17 17 17 17 17 17 17 17 17 17
21 22 23 25 23 23 23 23 23 23 22 22 22 21 20 18 18 17 17 17 16 16 16 16 17 16 16 16 16 16 16 16 17 17 17 17 17 17 17 17 17 17 17 17 17 17 17 17 17
21 23 24 23 23 23 24 23 23 23 23 22 22 21 19 17 17 17 17 16 16 16 16 16 16 16 16 16 16 16 16 16 16 16 16 17 16 16 16 16 17 17 17 17 17 17 17 17 17
23 25 24 23 23 23 23 23 23 23 22 21 21 21 19 17 17 17 17 16 16 16 16 16 16 16 16 16 16 16 16 16 16 16 16 16 16 16 16 16 16 16 16 17 17 17 17 17 16
24 25 24 23 22 23 23 22 23 23 22 21 21 21 19 17 17 17 17 16 16 16 16 16 16 16 16 16 16 16 16 16 16 16 16 16 16 16 16 16 16 16 16 16 16 16 16 16 16
23 25 23 23 23 23 23 22 22 22 21 20 20 21 20 17 17 17 17 17 16 16 16 16 16 16 16 16 16 16 16 16 16 16 16 16 16 16 16 16 16 16 16 16 16 16 16 16 16
23 25 23 23 23 23 23 22 21 21 21 20 19 19 18 17 17 17 17 17 16 16 16 16 16 16 16 16 16 16 16 16 16 16 16 16 15 15 15 16 16 16 16 16 16 16 16 16 16
24 24 23 24 24 23 22 22 22 21 21 20 19 18 17 17 17 17 17 17 17 16 16 16 16 16 16 16 15 15 15 15 15 15 15 15 15 15 15 16 16 16 16 16 16 16 16 16 15
24 24 24 23 23 23 22 22 21 22 22 21 20 18 18 17 17 17 17 17 17 16 16 16 16 16 16 16 15 15 15 15 15 15 15 15 15 15 15 15 15 15 15 15 15 15 15 15 15
24 24 23 23 22 22 22 22 21 21 21 20 19 19 18 18 18 17 17 17 16 16 16 16 16 16 16 16 15 15 15 15 15 15 15 15 15 15 15 15 15 15 15 15 15 15 15 15 15
24 23 22 22 21 22 22 21 21 20 19 19 19 18 18 18 18 17 17 17 16 16 16 16 16 16 16 16 15 15 15 15 15 15 15 15 15 15 15 15 15 15 15 15 15 15 15 15 15
23 23 22 22 22 22 22 21 21 20 19 19 18 18 18 18 18 17 17 17 17 16 16 16 16 16 16 16 15 15 15 15 15 15 15 15 15 14 14 14 14 14 14 14 14 14 14 15 14
22 23 23 22 22 22 22 22 22 20 19 19 19 18 18 18 17 17 17 17 17 16 16 16 15 16 16 16 15 15 15 15 15 15 15 15 14 14 14 14 14 14 14 14 14 14 14 14 14
24 24 23 23 22 21 22 22 22 20 20 20 19 19 18 17 17 17 17 17 16 16 16 16 16 15 15 15 15 15 15 15 15 15 15 14 14 14 14 14 14 14 14 14 14 14 14 14 14
24 23 23 23 23 22 22 22 22 20 20 20 20 19 19 18 17 17 17 16 16 16 16 16 16 15 15 15 15 15 15 15 15 15 14 14 14 14 14 14 14 14 14 14 14 14 14 14 14
23 24 23 23 23 22 22 22 22 20 20 20 20 20 19 19 18 17 17 16 16 16 16 16 15 15 15 15 15 14 14 14 14 14 14 14 14 14 14 14 14 14 14 14 14 13 13 13 13
24 24 23 23 23 22 22 22 22 21 20 20 20 20 19 18 18 17 17 16 16 16 15 15 15 15 15 15 14 14 14 14 14 14 14 14 14 14 14 14 13 13 13 13 13 13 13 13 13
23 23 23 22 22 22 22 22 22 22 21 20 20 20 19 18 18 17 16 16 16 16 15 15 15 15 14 14 14 14 14 14 14 13 13 13 14 14 14 14 13 13 13 13 13 13 13 13 13
23 23 23 22 22 22 21 22 22 22 20 19 19 19 19 18 18 17 17 16 16 16 15 15 15 14 14 14 14 14 14 13 13 13 13 13 13 13 13 13 13 13 13 13 13 13 13 13 13
23 23 22 22 22 22 22 22 23 22 21 20 19 19 18 18 17 17 16 16 16 15 15 15 15 14 14 14 14 13 13 13 13 13 13 13 13 13 13 13 13 13 13 13 13 13 12 12 12
23 22 22 22 22 22 22 22 23 22 21 21 20 19 18 17 17 16 16 16 15 15 15 15 14 14 14 14 13 13 13 12 12 12 12 12 12 12 12 12 12 12 12 12 12 12 12 12 12
21 22 21 21 22 21 22 22 22 22 22 21 20 19 18 17 16 16 15 15 15 15 15 15 14 14 14 13 13 13 12 12 12 12 12 12 12 12 12 12 12 12 12 12 12 12 12 12 12
22 22 22 22 21 22 22 21 22 22 21 21 20 19 18 17 16 16 15 15 15 15 15 14 14 14 13 13 13 12 12 12 12 12 11 11 11 11 11 12 12 12 12 12 12 11 11 11 11
22 23 22 21 22 22 21 22 22 21 20 19 19 18 17 16 16 15 15 15 15 14 14 14 14 13 13 13 12 12 12 11 11 11 11 11 11 11 11 11 11 11 11 11 11 11 11 11 11
22 22 22 22 22 21 22 22 22 20 20 19 19 18 17 16 16 15 14 14 14 14 14 14 13 13 13 13 12 12 11 11 11 11 11 11 11 11 11 11 11 11 11 11 11 11 11 11 11
21 22 22 21 21 21 22 22 22 21 21 20 19 18 17 16 15 15 14 14 14 14 14 13 13 13 13 12 12 11 11 11 11 11 11 11 10 11 11 11 11 11 10 10 10 10 10 10 10
20 20 21 21 21 21 21 22 22 21 21 20 19 18 17 16 15 15 14 14 14 14 13 13 13 13 12 12 12 11 11 11 10 10 10 10 10 10 10 10 10 10 10 10 10 10 10 10 10
21 21 21 21 21 21 21 21 21 21 20 19 19 17 17 16 15 14 14 14 13 13 13 13 13 12 12 12 11 11 11 10 10 10 10 10 10 10 10 10 10 10 10 10 10 10 10 10 10
Wind_Speed
3 2 2 2 2 5 8 6 5 5 5 6 6 5 6 7 6 5 3 3 4 4 6 7 8 8 8 8 9 9 10 9 10 10 10 10 10 10 9 9 9 10 10 10 10 10 10 11 11
1 1 1 1 2 6 7 5 6 6 6 5 6 6 6 7 6 5 4 3 4 5 6 8 8 8 9 9 9 10 10 10 10 10 10 10 10 10 9 9 10 10 10 10 11 10 11 11 11
2 1 1 2 4 6 7 6 7 7 5 3 4 5 5 5 4 4 4 4 4 6 7 9 8 8 9 9 9 9 9 9 10 10 10 10 10 10 10 11 11 11 11 11 11 11 11 10 10
2 1 1 5 10 8 7 6 6 6 5 4 4 6 5 5 3 4 5 4 6 6 7 9 8 8 9 9 10 9 9 9 9 10 10 10 10 10 10 11 11 11 11 11 11 11 11 11 10
1 1 4 7 9 7 6 5 4 5 5 5 5 6 7 5 6 6 5 5 6 6 7 9 8 8 8 9 9 9 9 9 9 9 10 10 10 10 10 10 11 11 11 11 11 11 11 11 10
1 2 5 7 8 7 6 4 5 6 6 5 5 6 6 5 5 5 5 5 6 6 6 8 8 8 8 8 8 8 8 9 9 9 9 9 10 10 10 10 10 10 10 10 10 10 11 11 11
1 3 5 7 7 6 4 3 3 5 6 5 3 5 6 5 5 5 5 6 6 6 5 6 6 7 7 8 8 8 8 8 8 8 8 9 9 10 10 10 10 10 10 10 10 10 11 11 10
1 4 6 5 6 5 4 4 3 4 5 5 3 4 5 5 5 5 5 6 6 5 5 5 5 5 5 6 8 7 7 8 7 8 8 7 7 8 8 9 10 10 10 10 10 10 10 10 10
1 3 5 5 5 5 5 5 4 4 6 5 4 5 6 7 6 6 5 5 4 4 4 4 4 5 5 5 6 5 6 6 4 6 6 3 5 6 7 10 10 9 9 10 10 10 9 8 9
1 3 3 3 3 6 6 5 5 5 6 5 6 6 7 7 6 5 4 4 3 3 3 3 3 3 4 4 4 4 4 4 3 4 4 4 5 6 6 10 9 8 8 8 9 7 5 3 5
1 3 4 3 4 6 7 5 4 5 4 4 5 7 7 7 5 4 3 3 3 3 3 3 2 2 3 2 2 2 3 3 3 3 4 4 4 4 4 4 5 5 4 5 6 4 5 5 5
3 3 3 4 5 5 6 5 4 2 3 4 5 8 8 7 5 4 3 3 2 2 2 2 2 1 2 2 2 2 2 2 2 3 3 3 3 3 3 3 3 3 3 4 3 3 5 5 5
4 4 4 5 6 6 6 5 4 3 3 5 6 8 7 6 4 4 3 3 2 2 1 2 1 1 1 1 1 1 2 2 2 2 2 3 2 2 2 3 3 3 3 3 3 3 4 4 4
4 5 5 6 6 5 6 4 3 3 5 6 7 7 6 5 4 3 2 1 1 1 1 1 1 1 1 1 1 1 1 2 1 1 2 2 2 2 2 2 2 2 2 2 2 3 3 3 4
5 5 5 4 4 4 5 4 3 5 6 7 6 6 5 4 4 3 2 1 1 0 0 1 0 1 0 1 1 1 1 1 1 1 2 2 2 1 1 1 2 2 2 2 2 3 3 3 3
5 5 5 4 4 4 6 3 4 7 7 6 5 5 5 4 3 2 1 1 0 0 1 1 1 1 1 1 1 1 1 2 2 1 1 2 2 2 2 1 1 1 2 1 1 1 2 3 3
6 5 4 5 5 5 5 3 4 7 7 7 6 5 5 5 4 3 2 1 0 0 0 1 1 1 1 1 1 1 1 2 2 2 2 2 1 1 1 1 1 1 1 1 1 1 1 2 2
5 5 4 4 4 6 6 5 5 7 8 7 6 6 5 5 4 3 2 2 1 1 1 1 2 1 2 2 2 2 2 2 2 2 2 2 2 2 1 1 0 1 1 1 1 2 1 1 1
4 5 5 2 2 5 6 6 6 7 8 8 7 7 6 5 4 4 3 3 2 2 1 1 1 1 2 1 1 1 1 1 2 2 3 2 2 2 1 0 1 1 1 1 1 1 1 1 1
6 6 5 3 2 4 5 6 5 6 8 8 8 7 7 6 5 5 4 4 3 2 2 2 2 2 2 1 0 1 1 1 2 2 2 2 2 1 1 1 1 1 1 1 2 2 1 0 0
7 7 5 3 2 4 4 6 6 5 6 6 7 7 6 6 6 6 5 4 4 3 2 2 2 2 2 2 1 2 2 2 2 1 2 2 2 2 1 1 1 1 1 1 2 2 2 1 1
6 4 5 5 6 4 4 5 5 5 6 6 6 6 6 5 6 5 5 5 4 4 3 3 3 3 2 3 2 2 1 1 1 1 1 1 2 2 1 1 0 1 0 1 1 1 1 1 1
2 2 5 5 6 6 7 7 3 4 5 6 6 6 5 5 5 6 6 5 4 4 4 3 4 4 3 3 3 2 2 1 1 1 2 1 2 2 2 1 1 0 0 0 1 1 1 1 2
4 5 4 4 5 7 6 6 4 3 4 3 5 5 5 5 5 5 5 5 5 5 5 4 4 4 3 3 2 2 2 2 2 2 2 1 1 2 2 2 1 0 0 1 1 1 1 1 1
6 5 4 5 5 4 3 5 4 1 1 2 3 5 5 5 5 6 6 6 6 5 5 5 5 4 3 3 2 2 2 1 1 1 1 1 1 1 1 1 1 1 1 1 1 2 2 2 2
6 7 5 4 4 3 4 6 1 2 0 1 2 4 5 5 5 6 6 6 6 5 5 5 4 4 3 3 2 2 2 1 1 1 1 1 1 1 1 1 1 1 1 1 1 1 2 2 2
5 6 4 6 6 6 5 3 2 3 2 2 3 5 5 6 5 5 6 6 5 5 5 5 5 4 3 3 2 2 1 1 1 1 1 1 1 1 1 1 1 1 1 1 1 1 1 2 2
3 3 4 6 5 6 5 6 3 5 4 4 4 5 5 5 5 5 5 5 5 5 5 4 4 4 3 3 2 1 1 0 0 1 1 1 1 1 1 1 1 1 1 1 1 2 2 2 2
4 5 5 6 6 6 5 3 1 2 3 3 4 4 5 5 5 5 5 5 5 5 5 5 4 4 3 3 3 2 1 1 1 0 1 1 1 1 1 2 1 1 1 2 1 2 2 3 3
4 5 7 7 7 7 7 4 3 2 2 3 3 4 4 4 4 4 5 5 5 5 5 5 5 4 4 3 3 3 2 2 1 1 1 2 2 2 2 2 2 2 2 2 2 3 3 3 4
Wind_Direction
165 185 243 243 164 97 84 80 79 82 72 61 59 67 69 50 38 68 81 65 52 64 70 77 62 62 70 77 79 79 76 73 72 72 74 75 76 78 79 79 80 78 78 75 73 75 89 89 91
154 214 247 246 130 109 91 88 83 71 86 98 78 72 74 68 56 84 94 72 68 69 70 68 64 63 69 75 78 76 73 72 73 73 74 75 76 78 78 81 83 81 80 78 76 77 91 89 92
150 272 352 93 91 92 100 97 93 90 91 94 83 64 55 65 72 84 84 99 88 75 70 72 67 71 71 71 73 73 74 75 75 75 74 75 75 76 76 77 81 79 79 80 79 79 82 86 90
209 173 112 99 93 80 97 107 112 114 96 78 94 84 79 56 63 84 105 107 93 81 75 77 69 72 69 69 70 72 75 76 75 75 73 74 74 75 76 78 80 79 79 79 78 80 78 78 81
222 157 115 106 98 95 96 97 115 103 92 85 93 92 89 70 74 94 110 102 92 84 77 83 71 69 66 66 67 70 74 75 74 74 71 71 72 72 75 78 80 78 79 78 77 79 79 78 78
164 145 124 113 109 107 103 106 110 98 96 96 95 98 93 91 91 101 107 100 91 87 83 88 84 72 66 64 67 67 70 74 72 70 69 68 69 70 73 74 79 79 79 78 78 79 79 78 77
114 116 114 120 123 118 110 108 99 101 95 81 86 96 109 104 98 111 108 102 92 86 84 84 88 90 84 69 65 66 68 70 69 68 68 70 72 71 72 73 73 75 78 79 79 80 80 79 76
88 127 125 128 137 126 125 127 96 92 93 90 82 94 117 123 125 123 115 105 97 89 83 78 78 76 79 83 73 66 67 67 70 69 67 74 86 83 75 78 74 73 73 78 78 78 79 79 77
220 147 134 142 148 131 138 134 116 101 109 98 79 77 100 126 135 128 119 109 95 85 82 80 76 72 68 72 84 85 85 73 84 90 86 83 83 81 84 70 72 74 76 77 74 75 79 84 86
172 144 125 133 142 136 138 134 136 138 122 115 110 102 113 130 139 135 127 118 108 92 85 78 72 71 69 67 79 79 79 75 63 73 78 72 69 69 74 86 77 77 80 88 82 81 91 82 85
111 116 118 130 138 143 142 132 137 148 128 133 141 139 137 138 135 133 128 115 102 91 79 67 56 66 71 77 69 70 73 67 63 65 74 75 79 88 82 90 100 96 100 93 97 100 76 70 68
123 102 115 130 139 151 148 140 130 125 98 110 133 142 144 145 143 138 132 117 109 89 73 65 58 66 73 79 79 73 75 68 64 66 70 73 71 69 75 79 77 79 78 75 80 78 79 71 69
130 123 112 121 131 137 134 133 128 128 118 123 133 142 149 151 147 138 124 117 111 99 77 57 45 54 74 78 75 90 78 67 73 58 63 65 67 72 78 80 78 74 76 83 76 77 75 70 65
121 121 125 133 139 147 143 142 153 145 147 144 145 150 157 156 153 141 136 132 126 122 92 71 63 91 101 134 127 78 78 89 77 71 55 61 62 65 66 76 79 74 74 76 77 74 72 67 63
137 140 144 149 157 161 169 170 178 159 161 158 157 156 157 157 157 154 152 155 139 126 106 74 37 77 97 90 95 72 61 67 73 73 52 61 54 54 66 65 79 78 84 87 81 80 74 71 68
184 198 192 166 174 180 212 199 167 169 175 173 172 165 165 168 172 165 159 155 109 97 88 94 92 86 85 108 124 93 83 78 68 68 66 65 75 66 64 61 69 71 78 91 98 93 76 69 61
207 213 199 171 186 191 217 220 169 181 190 191 189 183 179 175 179 175 166 160 155 166 128 109 104 102 104 104 123 113 93 79 68 61 60 45 49 63 83 63 53 80 93 98 101 93 80 70 58
213 213 208 196 175 198 219 225 190 192 204 207 201 200 195 190 185 179 170 161 151 142 128 121 112 106 111 123 120 110 90 72 62 60 63 63 48 33 58 108 100 88 107 92 97 89 80 76 58
232 225 225 211 190 213 229 234 222 204 209 216 214 208 204 202 192 177 166 157 142 127 125 112 113 110 109 114 128 115 107 85 69 53 50 71 68 44 50 51 107 109 128 122 125 121 115 89 67
223 225 223 189 180 223 237 251 241 216 216 222 221 214 210 203 193 180 172 161 147 137 135 123 113 103 102 84 101 129 110 90 76 55 51 54 66 58 60 85 116 143 142 137 132 138 144 127 234
223 234 231 221 199 212 247 248 221 210 210 218 226 225 219 213 202 187 179 168 159 148 139 128 113 106 97 95 85 92 101 94 81 55 49 43 49 51 49 84 116 132 165 159 162 175 182 206 232
230 225 223 214 227 235 234 266 220 207 207 215 218 218 219 212 203 189 180 173 171 160 147 136 121 111 99 98 93 101 92 92 50 10 37 41 50 53 41 44 100 146 141 157 188 192 217 220 224
238 177 203 222 246 258 231 257 231 181 224 222 213 211 212 203 193 185 179 175 168 154 144 136 123 116 106 99 100 103 91 81 66 42 42 41 60 52 41 32 67 123 118 174 178 191 233 229 241
157 156 165 206 238 248 233 246 257 194 223 220 205 203 199 190 182 177 170 163 152 142 137 133 127 113 104 104 105 101 96 93 81 49 33 33 60 53 45 24 9 321 260 232 214 212 222 245 243
204 223 230 221 222 239 181 240 259 114 214 256 220 198 186 177 173 171 166 163 154 147 140 138 135 124 117 116 111 108 98 90 81 38 22 17 33 37 25 359 333 345 326 297 249 228 231 233 242
213 236 252 265 257 255 209 239 224 103 0 262 202 178 168 170 171 170 166 165 159 156 155 154 150 140 132 129 119 109 101 94 66 26 359 345 -0 11 349 321 315 323 319 311 267 244 235 241 239
214 226 266 275 273 268 240 231 234 168 166 149 151 159 167 170 173 172 168 167 165 165 167 169 167 161 155 152 141 122 107 89 43 355 345 342 347 350 349 291 273 292 287 283 262 245 238 246 242
267 221 221 242 259 260 249 244 228 178 167 153 159 168 170 170 173 174 173 173 170 167 171 175 176 176 173 172 170 158 157 207 334 341 354 336 331 332 316 288 252 254 256 244 248 251 251 243 243
180 203 229 243 256 267 268 253 115 194 183 186 176 177 178 179 179 178 177 175 170 170 173 178 182 181 178 182 181 186 189 208 229 279 322 311 307 303 299 298 283 270 263 249 229 259 250 246 245
231 230 229 246 248 251 268 271 110 187 195 203 200 191 185 184 183 180 177 177 177 181 181 183 185 188 189 191 192 200 196 206 222 256 276 285 297 304 303 302 289 276 267 263 250 248 253 251 248
Height
1509 1509 1509 1510 1509 1510 1518 1519 1516 1518 1519 1523 1522 1522 1522 1524 1526 1534 1534 1531 1531 1530 1529 1528 1527 1527 1526 1525 1525 1524 1524 1524 1524 1524 1523 1523 1523 1522 1522 1522 1521 1521 1521 1521 1520 1520 1520 1520 1520
1510 1509 1511 1510 1508 1517 1524 1519 1520 1520 1522 1524 1524 1524 1524 1528 1531 1532 1533 1532 1532 1531 1531 1530 1528 1528 1527 1527 1526 1526 1526 1526 1525 1525 1525 1524 1524 1524 1523 1523 1523 1523 1523 1523 1522 1521 1521 1521 1521
1510 1510 1512 1509 1511 1517 1523 1520 1521 1523 1525 1524 1525 1526 1528 1531 1533 1534 1534 1533 1533 1533 1532 1531 1530 1529 1529 1528 1528 1528 1528 1527 1527 1527 1526 1526 1526 1525 1525 1525 1525 1525 1525 1524 1524 1524 1523 1523 1523
1511 1513 1513 1511 1518 1519 1519 1520 1522 1523 1525 1526 1526 1528 1531 1534 1535 1535 1534 1534 1534 1534 1534 1532 1531 1531 1530 1530 1530 1529 1529 1529 1528 1528 1528 1528 1527 1527 1527 1526 1526 1526 1526 1526 1526 1526 1526 1525 1525
1512 1512 1512 1517 1520 1520 1520 1522 1523 1523 1524 1527 1527 1529 1533 1536 1535 1535 1535 1535 1536 1535 1535 1534 1533 1532 1532 1532 1531 1531 1531 1530 1530 1530 1529 1529 1529 1528 1528 1528 1528 1528 1528 1528 1527 1527 1527 1527 1527
1514 1511 1515 1521 1522 1521 1522 1524 1524 1524 1526 1528 1529 1530 1535 1537 1536 1536 1537 1536 1536 1536 1536 1535 1534 1534 1533 1533 1533 1532 1532 1532 1531 1531 1531 1530 1530 1530 1530 1529 1529 1529 1529 1529 1529 1529 1529 1529 1529
1514 1511 1516 1519 1523 1523 1524 1525 1525 1525 1527 1530 1531 1531 1535 1537 1537 1537 1537 1537 1537 1537 1537 1537 1537 1536 1535 1535 1534 1534 1533 1533 1533 1532 1532 1532 1532 1531 1531 1531 1531 1530 1530 1530 1530 1530 1530 1530 1530
1514 1513 1517 1519 1523 1524 1525 1526 1528 1528 1530 1532 1533 1533 1536 1538 1538 1538 1538 1539 1538 1538 1538 1538 1538 1538 1537 1537 1535 1535 1535 1534 1534 1534 1533 1533 1533 1533 1533 1532 1532 1532 1531 1531 1531 1531 1531 1531 1531
1514 1514 1519 1520 1521 1523 1525 1527 1529 1531 1532 1533 1534 1536 1537 1538 1538 1539 1539 1539 1539 1539 1539 1539 1539 1539 1538 1538 1537 1536 1536 1535 1535 1535 1535 1535 1535 1535 1534 1534 1533 1533 1533 1533 1532 1532 1533 1533 1533
1514 1515 1518 1519 1519 1522 1525 1527 1529 1531 1532 1534 1536 1537 1537 1538 1539 1539 1540 1540 1540 1540 1540 1540 1540 1539 1539 1538 1538 1538 1538 1537 1537 1537 1536 1536 1536 1535 1535 1534 1534 1534 1534 1534 1534 1534 1534 1534 1535
1514 1516 1518 1520 1522 1523 1525 1528 1530 1529 1531 1533 1535 1537 1538 1539 1539 1540 1540 1541 1541 1541 1540 1540 1540 1540 1539 1539 1539 1539 1538 1538 1538 1538 1537 1537 1537 1537 1537 1536 1536 1536 1536 1536 1535 1536 1536 1536 1535
1516 1518 1520 1521 1524 1525 1526 1528 1530 1531 1533 1534 1536 1537 1538 1539 1539 1540 1541 1541 1541 1541 1541 1540 1540 1540 1540 1539 1539 1539 1539 1539 1539 1539 1539 1539 1538 1538 1538 1537 1537 1537 1537 1536 1537 1537 1537 1537 1537
1517 1520 1522 1523 1525 1526 1527 1529 1531 1533 1534 1535 1536 1537 1538 1539 1540 1541 1541 1541 1541 1541 1541 1540 1540 1540 1540 1539 1539 1540 1539 1539 1539 1539 1539 1539 1539 1539 1539 1539 1538 1538 1538 1538 1538 1538 1538 1537 1538
1519 1520 1522 1524 1525 1527 1528 1529 1531 1533 1535 1535 1536 1537 1538 1539 1540 1540 1541 1541 1541 1541 1541 1540 1540 1540 1540 1540 1539 1540 1539 1539 1539 1539 1540 1540 1540 1540 1539 1539 1539 1539 1539 1538 1539 1538 1538 1538 1538
1520 1520 1522 1524 1525 1526 1527 1529 1530 1533 1534 1535 1536 1537 1538 1539 1540 1540 1540 1541 1541 1541 1540 1540 1540 1540 1540 1540 1539 1539 1539 1539 1540 1539 1540 1540 1540 1540 1540 1540 1539 1539 1539 1539 1539 1539 1539 1538 1538
1518 1518 1521 1523 1524 1526 1527 1529 1529 1532 1533 1534 1535 1536 1537 1538 1539 1540 1540 1540 1540 1540 1540 1539 1539 1539 1539 1539 1539 1539 1539 1539 1539 1539 1539 1540 1540 1540 1540 1539 1539 1539 1539 1539 1539 1539 1539 1539 1538
1516 1518 1519 1522 1523 1523 1524 1525 1527 1530 1532 1532 1534 1535 1536 1537 1538 1539 1539 1539 1539 1539 1539 1539 1539 1539 1538 1538 1538 1538 1538 1538 1538 1539 1539 1539 1539 1539 1539 1539 1539 1539 1539 1539 1539 1539 1539 1539 1538
1517 1516 1518 1519 1520 1522 1523 1523 1525 1529 1530 1530 1532 1533 1534 1535 1537 1537 1538 1538 1538 1538 1539 1539 1538 1538 1538 1538 1538 1537 1537 1538 1538 1538 1538 1538 1538 1539 1539 1539 1539 1539 1539 1539 1539 1538 1538 1538 1538
1513 1515 1517 1518 1519 1521 1521 1521 1522 1525 1528 1528 1529 1531 1532 1534 1535 1536 1537 1537 1537 1537 1538 1538 1538 1538 1537 1537 1537 1537 1537 1537 1537 1537 1537 1537 1537 1537 1538 1538 1538 1538 1538 1538 1538 1538 1538 1538 1538
1514 1515 1516 1518 1520 1520 1520 1520 1519 1522 1524 1526 1527 1528 1530 1532 1533 1534 1535 1536 1536 1537 1537 1537 1537 1537 1537 1536 1537 1537 1536 1536 1536 1536 1536 1536 1536 1536 1537 1537 1537 1537 1537 1537 1537 1537 1538 1538 1538
1514 1514 1515 1518 1520 1519 1521 1520 1517 1518 1522 1524 1525 1526 1528 1529 1531 1532 1533 1534 1535 1535 1536 1536 1537 1537 1536 1536 1536 1536 1536 1535 1536 1536 1535 1535 1535 1535 1536 1536 1536 1536 1536 1536 1536 1537 1537 1537 1537
1513 1512 1514 1517 1519 1518 1521 1521 1513 1513 1517 1520 1522 1524 1525 1527 1528 1530 1531 1532 1533 1535 1535 1536 1536 1536 1536 1536 1535 1535 1535 1535 1535 1535 1535 1534 1534 1534 1535 1535 1535 1535 1535 1535 1535 1536 1536 1536 1537
1511 1513 1514 1516 1516 1517 1516 1518 1509 1511 1514 1515 1518 1521 1523 1524 1526 1528 1529 1530 1532 1533 1534 1535 1535 1535 1535 1535 1535 1535 1535 1535 1535 1534 1534 1534 1534 1534 1534 1534 1534 1534 1534 1534 1534 1534 1535 1535 1535
1513 1514 1515 1515 1515 1521 1513 1517 1512 1508 1510 1511 1515 1518 1521 1522 1524 1526 1527 1529 1530 1531 1532 1533 1534 1534 1534 1534 1534 1534 1534 1534 1534 1534 1533 1533 1533 1533 1533 1533 1533 1533 1533 1533 1533 1533 1533 1534 1534
1512 1514 1519 1520 1521 1516 1512 1516 1510 1506 1509 1511 1513 1516 1519 1521 1522 1524 1526 1527 1528 1530 1531 1532 1533 1533 1534 1534 1534 1534 1534 1534 1534 1533 1533 1533 1532 1532 1532 1532 1532 1532 1532 1532 1532 1532 1532 1532 1532
1509 1510 1518 1523 1519 1513 1513 1512 1505 1508 1510 1512 1513 1515 1517 1519 1521 1523 1524 1525 1527 1528 1529 1531 1532 1533 1533 1533 1534 1533 1533 1533 1533 1532 1532 1532 1532 1531 1531 1531 1531 1531 1531 1530 1530 1530 1531 1531 1531
1509 1509 1507 1512 1513 1516 1507 1505 1504 1507 1509 1511 1512 1514 1516 1518 1520 1521 1523 1524 1525 1527 1528 1529 1531 1531 1532 1532 1533 1533 1532 1532 1532 1531 1531 1531 1530 1530 1530 1530 1529 1529 1529 1529 1529 1529 1529 1529 1529
1509 1508 1511 1513 1518 1517 1509 1507 1503 1504 1506 1508 1511 1513 1515 1517 1519 1521 1522 1523 1524 1526 1527 1528 1529 1530 1531 1531 1531 1531 1531 1531 1530 1530 1529 1529 1529 1529 1528 1528 1528 1528 1528 1528 1527 1528 1527 1528 1528
1512 1512 1510 1509 1509 1514 1514 1507 1498 1501 1503 1506 1508 1511 1514 1516 1517 1519 1520 1521 1522 1524 1525 1526 1528 1528 1529 1529 1529 1529 1529 1529 1529 1528 1528 1527 1527 1527 1527 1527 1527 1527 1526 1526 1526 1526 1526 1526 1526
1507 1507 1508 1512 1510 1509 1510 1507 1499 1502 1504 1506 1508 1510 1512 1514 1516 1517 1519 1520 1521 1522 1523 1524 1525 1526 1527 1527 1527 1527 1527 1527 1527 1526 1526 1526 1525 1525 1525 1525 1525 1525 1525 1525 1524 1524 1523 1523 1523